User: anonymous   Login
Location: Ellerstadt
(49.4644°N, 8.2615°E)
Time: 19:03:46
(UTC+00:00)
Language:

Resurs 01 Rocket - Orbit

View from above orbital plane
View from above orbital plane
View from above satellite
View from above satellite

Ground track
Ground track

The orbit data is extracted from the following two-line orbital elements,

1 23343U 94074B   21333.12061852  .00000064  00000-0  16264-4 0  9999
2 23343  97.9248  25.0458 0005680 236.9370 145.4369 14.76920484456809
Epoch (UTC): 29 November 2021 02:53:41
Eccentricity: 0.0005680
inclination: 97.9248°
perigee height: 635 km
apogee height: 643 km
right ascension of ascending node: 25.0458°
argument of perigee: 236.9370°
revolutions per day: 14.76920484
mean anomaly at epoch: 145.4369°
orbit number at epoch: 45680

The dashed part of the orbit path shows where the satellite is in the earth's shadow,  

DLR